Theta_e
323 340 346 347 342 342 345 346 347 347 346 345 345 344 343 342 339 340 340 338 337 335 335 334 333 334 334 335 335 335 334 333 333 333 332 332 331 330 330 329 329 328 331
327 343 345 345 345 346 348 346 347 345 345 345 344 343 342 340 338 338 338 336 335 335 334 334 334 334 334 334 334 333 332 331 332 332 331 331 332 333 333 332 332 330 331
335 344 344 343 345 347 348 347 345 344 343 342 341 340 338 337 336 336 337 336 335 334 334 333 334 333 332 331 331 331 332 330 331 330 326 328 330 332 332 332 332 332 332
339 344 343 341 344 348 347 346 345 344 342 341 339 338 336 336 336 335 335 334 334 334 334 334 333 333 331 330 329 329 330 330 327 325 324 323 325 327 330 330 331 332 332
339 343 342 341 345 347 346 346 344 344 341 339 337 336 336 335 335 334 334 334 333 333 333 333 332 329 328 328 329 330 330 330 326 322 322 324 325 324 331 331 330 331 331
338 342 340 342 345 346 346 345 345 343 340 337 336 335 336 335 335 334 333 333 332 332 331 330 328 327 328 329 330 330 331 330 326 325 324 324 325 328 330 332 332 333 335
336 340 342 342 344 346 345 345 344 342 339 337 336 336 335 335 333 333 332 332 332 331 329 327 327 327 328 330 330 331 331 330 328 326 325 325 326 330 331 332 334 335 336
335 339 341 336 340 342 343 343 342 341 339 338 337 336 334 334 333 333 333 332 330 329 327 327 327 328 329 330 330 331 331 329 327 327 326 327 326 332 332 334 335 337 336
336 338 340 342 339 335 338 338 339 339 338 337 337 336 335 335 333 334 334 332 330 330 328 328 329 329 330 330 331 332 329 327 328 328 326 328 327 334 334 335 336 338 336
334 336 337 338 341 341 340 332 333 335 336 335 334 332 329 330 329 331 329 333 332 331 330 330 330 331 331 331 331 329 326 325 328 327 328 328 329 335 334 333 337 338 338
329 331 333 333 337 338 337 332 330 330 331 331 330 327 326 330 329 328 327 329 331 332 332 331 332 332 331 328 327 326 324 328 328 328 328 326 331 335 335 334 336 337 336
324 326 330 330 334 335 335 333 335 334 334 333 332 331 330 329 329 328 324 324 327 327 328 329 330 330 326 327 327 325 328 328 328 328 328 326 331 335 336 336 336 335 334
325 326 330 331 334 335 333 332 332 333 332 331 331 329 327 326 327 328 328 327 328 319 326 325 325 325 324 325 326 327 327 327 328 328 327 325 330 333 335 336 336 334 333
325 326 327 330 332 333 332 331 330 330 330 329 329 328 327 326 326 326 326 326 326 327 326 326 325 325 325 325 325 326 326 327 328 328 326 322 326 332 335 336 336 331 333
323 326 327 330 330 330 330 330 328 329 329 329 328 328 327 326 325 325 324 325 326 326 325 325 324 325 325 325 326 326 326 328 328 327 328 319 323 329 332 335 333 333 332
325 327 327 329 330 330 329 328 327 329 328 328 327 327 327 326 325 324 324 325 325 325 326 325 325 326 326 325 325 326 327 328 327 327 327 328 322 325 328 332 333 333 331
325 328 329 329 330 329 329 327 328 328 327 327 326 326 325 326 325 326 326 326 326 326 325 325 325 325 325 325 325 326 327 327 326 326 327 326 326 321 325 332 331 330 330
325 325 326 330 330 329 328 327 328 328 327 326 326 327 326 326 326 326 326 326 327 326 326 325 325 325 325 325 326 327 325 326 325 325 325 325 326 327 326 328 330 329 327
327 326 326 329 328 327 327 328 328 327 326 327 326 326 326 326 327 327 327 327 327 326 325 325 325 324 325 325 326 327 326 326 326 322 323 323 325 328 325 319 319 321 323
327 327 327 328 328 327 327 326 326 326 326 326 326 326 326 326 326 326 326 326 326 325 325 324 324 325 325 326 325 325 328 328 322 320 323 325 323 322 320 316 318 316 317
324 326 327 326 326 326 325 324 324 323 325 325 326 326 326 326 326 326 325 324 324 323 323 323 323 322 323 324 323 325 324 322 316 317 322 318 319 316 315 313 309 307 307
317 323 325 326 325 326 327 324 325 325 324 326 328 327 326 325 326 325 325 325 325 324 324 324 323 323 324 326 324 319 315 316 315 315 316 313 316 313 306 303 302 300 301
316 317 321 324 323 325 324 323 323 323 324 323 324 325 326 327 327 326 326 326 327 327 326 325 325 323 323 325 325 320 311 310 311 312 310 312 313 309 304 300 298 296 297
310 314 317 321 321 321 322 323 323 322 320 323 325 326 328 329 328 329 330 329 329 328 327 327 327 325 324 322 321 322 321 316 310 306 308 308 309 305 301 298 295 295 296
309 310 314 315 314 316 322 323 322 321 323 325 325 326 326 324 324 325 326 327 327 328 327 327 326 324 325 323 321 318 319 316 316 313 306 304 304 302 300 297 295 294 293
304 305 307 309 311 312 312 313 315 317 319 321 322 320 320 317 318 318 320 321 322 322 322 322 322 323 323 322 320 319 317 315 312 312 310 307 304 300 297 296 294 292 291
Wind_Speed
9 14 21 20 20 19 18 17 16 16 16 17 16 16 15 14 13 13 13 13 12 11 11 10 11 11 11 11 11 11 10 9 7 9 9 10 9 10 10 9 9 8 9
14 16 21 21 19 18 17 17 16 15 16 16 15 14 13 13 13 13 11 13 12 10 11 11 11 11 10 10 10 9 10 10 7 5 7 7 8 7 8 7 7 7 7
18 18 18 21 20 18 18 17 15 14 14 14 13 13 12 12 12 12 11 13 11 11 10 11 10 10 9 9 8 9 10 10 9 8 7 4 5 8 6 5 5 6 7
17 17 17 19 19 19 17 17 16 14 14 13 13 12 12 12 12 12 11 10 11 10 10 10 9 8 8 8 8 8 9 9 8 7 4 4 5 7 7 7 6 5 6
17 16 16 19 19 19 19 17 15 14 13 13 12 12 12 12 12 11 11 9 8 9 8 8 7 7 7 7 7 8 8 8 7 5 4 4 4 5 8 7 5 5 5
17 16 16 19 20 19 19 17 16 14 13 13 12 12 12 12 11 10 8 9 8 7 6 6 6 6 5 6 6 6 7 7 5 5 4 4 4 6 7 6 6 4 6
17 14 16 17 18 19 18 17 16 14 13 12 12 12 11 11 10 10 8 8 7 6 5 5 4 3 4 5 5 6 6 6 5 4 4 4 4 7 5 6 6 6 8
15 13 14 13 14 16 17 17 17 15 13 13 12 11 12 11 10 8 8 7 5 4 3 2 2 2 4 4 5 6 6 6 4 4 4 4 6 8 6 8 8 7 9
12 13 10 12 13 12 14 14 14 16 14 13 11 11 11 13 9 8 7 6 5 2 2 1 2 3 4 5 6 6 6 6 5 3 4 3 6 8 6 10 10 9 6
13 13 10 11 11 12 12 13 12 12 12 11 10 7 6 8 9 9 7 5 3 2 3 3 4 5 5 6 6 6 6 5 3 4 3 4 9 11 8 9 10 11 10
11 14 13 13 12 10 10 9 11 11 11 10 9 8 5 3 6 6 5 4 3 3 4 5 6 6 6 5 5 5 5 2 3 3 3 6 10 12 12 11 10 11 9
15 14 12 12 11 9 8 9 9 8 7 7 7 7 5 5 4 5 4 4 4 4 5 6 7 6 5 3 3 3 2 3 3 3 3 7 10 13 13 12 12 11 6
17 10 13 10 9 9 9 7 4 4 5 5 8 7 6 4 3 3 2 2 2 2 3 3 4 3 4 3 3 3 3 3 3 3 4 8 9 12 12 12 12 7 5
17 14 12 11 8 9 6 7 6 5 5 5 6 7 5 3 4 3 3 3 3 2 4 4 3 4 4 4 4 4 4 4 3 3 4 7 8 10 11 11 11 2 7
18 16 12 9 8 8 8 6 6 6 5 5 5 5 5 5 5 4 4 3 4 3 3 3 3 3 4 4 4 4 5 4 4 3 3 6 7 8 9 11 8 9 10
15 13 13 11 9 8 7 7 6 6 6 5 5 6 7 5 4 4 4 4 4 4 4 4 4 4 4 4 5 5 5 5 5 5 4 4 5 6 7 7 8 10 10
12 13 13 12 10 9 9 8 7 6 6 5 6 7 7 7 7 6 5 5 5 4 5 4 5 4 4 3 6 6 5 6 5 5 5 5 4 2 3 5 10 10 11
12 13 11 10 11 10 9 8 7 7 6 6 6 6 8 8 8 6 5 6 6 4 4 4 4 4 4 4 5 5 5 5 4 5 5 5 2 1 3 8 10 11 12
10 12 13 10 11 9 9 8 8 8 6 6 6 6 8 9 9 7 6 6 5 5 5 4 4 4 4 5 5 6 6 3 3 3 4 3 2 5 6 13 13 12 12
10 12 12 9 9 9 7 4 3 4 5 5 6 6 8 7 8 7 6 7 6 5 5 5 6 4 5 6 5 6 5 4 0 2 3 4 6 9 9 7 8 10 13
9 10 12 12 11 9 4 3 3 5 5 5 6 9 8 8 8 8 7 6 5 6 7 5 3 5 5 4 3 2 1 2 4 3 4 5 8 8 8 7 5 5 7
6 7 9 10 10 8 6 3 3 3 3 4 5 7 9 8 9 8 6 6 6 5 6 6 6 3 3 4 3 1 1 2 3 4 5 4 6 7 7 7 7 8 7
9 3 4 5 5 5 6 3 2 2 1 1 3 4 8 11 9 8 8 7 7 6 6 6 5 6 5 2 6 2 2 2 2 1 5 4 4 5 6 7 7 7 7
9 9 9 7 3 3 5 4 4 3 3 2 3 2 3 5 6 7 8 7 7 4 5 5 4 5 3 3 1 5 1 1 3 2 2 4 5 5 6 5 6 6 7
9 9 5 10 7 8 1 3 3 3 2 2 2 3 1 1 3 4 4 4 3 2 2 2 3 4 3 3 3 2 3 1 2 2 3 3 2 3 4 5 5 6 6
7 6 6 8 7 6 6 6 5 5 5 3 2 3 1 1 2 3 3 3 3 3 3 2 1 1 2 3 2 3 2 2 3 3 3 3 3 3 3 5 5 5 4
Wind_Direction
182 164 160 149 150 149 143 133 134 133 138 137 134 128 124 118 110 103 100 94 83 104 95 92 91 86 84 79 74 67 58 50 52 57 49 46 59 60 55 48 40 40 37
148 161 158 149 154 150 140 138 135 133 131 137 135 130 127 122 116 113 108 96 94 95 106 99 92 84 78 72 65 60 51 44 51 73 50 31 8 46 53 46 39 39 35
149 155 156 149 154 150 142 138 135 135 136 135 133 131 131 128 123 121 111 110 103 100 98 97 89 83 76 68 61 54 48 44 51 49 33 17 357 356 39 32 17 17 12
151 154 155 152 154 147 142 143 141 143 142 139 138 134 133 132 128 123 119 115 116 108 105 99 90 79 68 60 54 50 45 41 36 31 19 2 349 346 2 12 6 359 352
153 155 154 151 154 147 146 146 145 145 144 143 140 140 137 138 134 131 129 127 112 110 103 95 88 76 63 51 43 38 36 34 32 15 360 352 340 338 337 5 3 352 326
156 156 156 154 156 154 151 150 149 147 147 143 143 146 142 137 133 132 133 120 117 106 102 96 83 67 52 40 35 32 26 18 11 1 352 351 335 322 322 339 2 334 280
156 157 157 156 159 156 153 151 148 148 148 145 149 149 141 138 143 141 141 127 123 121 118 106 91 64 37 23 13 10 13 10 1 354 339 325 316 318 316 312 332 312 306
153 156 162 155 154 156 157 154 150 148 149 151 150 147 146 146 149 147 141 137 139 138 131 115 87 20 1 353 352 356 356 352 338 336 330 321 319 323 327 308 312 306 330
151 157 159 160 154 149 150 152 151 150 152 155 157 157 168 170 151 148 145 155 150 156 189 216 309 328 330 334 341 345 338 334 317 307 316 316 316 319 320 302 308 309 305
154 168 166 169 161 159 161 148 148 150 153 156 150 138 154 164 164 152 160 177 186 231 240 265 288 300 312 324 330 329 331 328 332 311 311 319 313 312 322 307 316 326 331
167 178 181 180 177 160 156 157 149 153 153 147 146 144 133 134 151 159 162 192 236 261 270 276 284 297 308 310 313 316 323 325 326 320 316 314 316 316 322 322 325 337 10
173 178 186 184 181 158 155 158 161 159 162 158 160 162 166 166 174 182 199 222 248 269 283 291 293 310 304 293 297 298 308 313 303 306 300 303 314 320 327 326 325 3 45
170 177 177 181 169 165 167 166 168 164 162 169 171 168 167 171 187 204 220 232 246 264 263 273 285 286 290 289 302 304 304 298 302 299 297 298 311 318 321 317 314 8 79
173 173 176 181 165 179 169 175 178 171 172 173 178 175 175 182 195 211 230 236 245 248 265 264 273 289 291 291 291 292 289 293 295 296 296 281 300 309 309 313 332 114 100
181 174 170 169 177 184 182 182 181 179 178 180 183 190 187 194 208 208 227 239 249 249 246 257 260 272 282 286 279 277 287 287 288 278 285 276 282 302 305 315 338 112 106
176 170 170 170 174 178 191 180 184 181 182 185 194 202 204 206 213 217 230 235 245 232 244 252 255 262 261 266 280 271 268 267 262 271 287 292 267 290 316 323 109 111 103
170 166 167 173 171 179 188 190 183 186 186 197 206 204 208 211 214 216 226 237 244 241 256 258 261 260 266 263 263 263 260 258 271 287 293 299 298 296 337 101 116 104 102
166 175 180 173 179 183 182 188 189 187 196 208 208 212 215 220 220 224 232 239 241 238 240 243 253 258 256 260 268 266 255 257 286 305 313 309 296 94 97 105 94 106 92
171 187 189 178 174 180 189 189 191 194 202 214 215 215 219 220 220 223 232 246 242 240 236 235 237 228 254 266 264 267 254 287 294 320 352 347 93 115 107 75 72 72 83
166 185 190 184 178 177 190 174 172 193 220 221 225 223 223 226 224 222 233 239 228 231 239 232 242 234 245 251 264 272 285 281 168 34 45 81 99 109 106 96 92 73 74
168 173 186 187 180 172 162 164 181 219 220 219 224 226 223 230 228 222 228 232 217 212 225 207 200 232 247 244 272 266 255 76 82 57 87 95 104 102 101 94 97 93 75
171 176 175 184 171 180 180 169 167 171 207 216 218 220 223 222 226 219 215 223 219 213 220 215 198 204 233 186 219 235 263 153 84 58 78 86 111 108 91 76 77 82 81
53 86 162 153 152 165 156 138 143 143 147 173 227 229 225 225 223 205 215 217 221 211 222 211 201 207 233 207 210 202 167 222 124 13 55 78 114 105 101 96 84 76 70
35 42 53 52 84 151 158 164 179 182 196 211 227 236 245 222 228 220 214 215 221 212 225 219 210 215 193 207 185 233 275 163 169 173 92 66 82 103 97 87 84 69 71
30 28 26 65 23 19 354 193 216 234 230 226 245 270 304 347 2 346 321 263 232 260 267 237 190 185 189 188 190 174 206 200 266 215 162 157 105 95 109 100 88 78 47
37 27 17 60 30 29 11 11 22 354 1 351 310 277 249 143 74 22 4 10 28 73 70 65 121 118 167 152 175 181 176 175 176 186 186 160 172 131 102 91 85 76 54